Location: Unspecified
(0.0000°N, 0.0000°E)
Time: 12:27:54
(UTC+00:00)

Cosmos 1461 - Pass Details

Date: 01 March 2026
Orbit: 424 x 493 km, 65.0° (Epoch: 28 March)

Event Time Altitude Azimuth Distance (km) Brightness Sun altitude
Exits shadow 05:08:50 23° 230° (SW) 972 3.7 -15.7°
Drops below altitude 10° 05:11:01 10° 192° (SSW) 1,531 5.1 -15.2°
Sets 05:13:19 0° 178° (S) 2,391 6.2 -14.6°
